Wind_Speed
3 3 3 3 3 3 3 3 3 3 3 2 2 2 1 1 1 1 1 2 2 3 3 4 5 6 7 9 9 11 12 14 14 16 17 8 2 4 4 5 4 5 7 10 11 9 8 7 7 6 5 5 4 4 4 4 5 5 3 4 5 5 4 4 6 5 1 5 5 4 5 7 6 3 6 9 11 15 19 22 23 24 26 28 28 26 25 23
4 3 3 3 3 3 3 3 3 3 3 3 3 3 2 2 2 2 3 3 4 4 5 6 7 8 9 10 11 12 14 15 17 20 13 2 1 4 4 5 4 3 5 8 9 9 9 7 7 8 7 6 4 4 4 4 6 6 3 3 6 6 3 4 7 6 4 8 9 8 7 7 8 5 5 8 11 12 16 20 19 22 27 28 26 23 22 21
4 4 4 4 4 3 3 3 3 4 4 4 4 4 4 4 4 4 5 5 6 6 7 8 9 10 11 12 13 13 14 16 20 17 4 5 3 6 6 6 4 3 4 7 8 9 9 8 7 8 8 6 5 5 5 5 7 6 5 5 8 7 4 6 9 9 11 13 11 11 9 8 10 8 6 7 12 12 15 19 15 17 23 24 22 20 20 21
6 6 6 5 5 5 5 5 5 5 5 6 6 6 6 7 7 7 7 7 8 8 9 9 10 11 12 13 14 14 15 16 15 8 8 5 6 10 10 7 5 3 3 6 8 10 9 9 8 8 9 6 4 5 6 8 6 4 6 8 7 3 4 8 13 14 15 15 12 10 11 11 12 11 9 8 9 11 16 20 18 21 25 22 20 22 24 24
7 7 7 7 7 7 7 7 7 7 8 8 8 8 9 9 9 9 9 10 10 10 11 11 12 12 13 14 14 14 13 9 4 1 6 6 10 16 13 8 6 3 2 5 7 10 10 10 9 9 8 5 5 5 5 11 9 4 9 14 11 4 6 8 10 13 14 13 11 8 10 12 11 12 13 11 9 13 21 23 22 28 31 28 26 27 30 30
8 8 8 8 8 8 9 9 9 9 9 10 10 10 11 11 11 11 11 12 12 13 13 13 13 13 14 15 15 14 8 5 5 5 8 12 16 17 13 9 6 4 3 5 7 9 10 11 10 8 6 5 6 7 5 11 12 8 9 13 14 10 10 12 9 11 12 10 8 8 13 15 12 15 15 16 19 25 32 33 34 37 36 36 35 33 34 33
9 9 9 9 9 10 10 10 11 11 11 11 12 12 12 13 13 13 13 13 14 14 14 15 15 15 16 16 17 15 9 12 16 15 15 16 15 13 12 9 7 6 6 7 8 9 11 11 11 8 6 5 6 8 6 9 12 10 8 8 12 12 15 18 12 13 15 12 13 15 18 20 16 15 13 14 22 34 41 41 41 40 36 36 35 31 31 29
10 10 11 11 11 12 12 12 12 13 13 13 14 14 15 15 16 16 16 16 16 16 17 17 17 17 17 17 18 15 13 18 19 15 13 10 9 9 9 9 9 9 10 10 9 9 10 11 13 10 7 6 6 6 5 7 9 11 12 10 9 11 16 18 14 16 18 17 18 18 19 25 25 18 17 21 30 40 41 39 36 33 32 31 30 27 26 26
11 12 12 12 13 13 13 14 14 15 15 15 16 17 17 18 18 18 18 19 19 19 19 19 19 19 18 19 18 13 16 20 15 10 9 7 9 9 10 11 12 12 12 11 10 10 10 11 14 12 9 7 7 6 6 7 6 9 13 12 10 13 15 16 16 16 17 17 16 13 18 27 25 18 21 24 28 31 26 26 27 26 28 29 29 29 27 27
11 12 12 13 13 14 15 15 16 16 16 17 18 18 19 19 20 20 20 20 20 20 20 19 20 20 19 20 15 11 17 18 11 11 11 12 14 13 14 14 15 15 13 13 12 13 12 12 12 12 11 7 7 7 7 7 4 3 7 11 15 18 18 16 16 17 15 16 16 14 17 25 18 9 13 13 14 19 18 23 27 27 30 30 30 29 28 27
12 12 13 14 14 15 16 16 16 17 17 18 19 20 20 20 20 20 20 20 20 20 20 19 19 19 19 20 15 14 21 20 15 17 16 17 19 18 18 16 17 15 14 14 13 13 13 13 11 9 8 6 6 5 7 10 7 5 6 11 16 17 19 17 17 20 14 10 14 15 16 22 13 6 19 25 20 21 23 27 29 28 29 28 27 27 27 29
12 13 13 14 15 16 16 16 17 17 17 18 19 19 20 20 20 20 20 20 20 19 19 19 18 19 18 20 24 24 25 22 19 20 19 21 22 21 21 18 17 15 14 14 13 12 12 13 14 11 8 5 3 2 4 7 6 7 5 10 15 13 17 18 15 14 10 6 8 11 9 15 11 13 29 34 24 21 21 26 29 28 28 26 26 28 31 34
12 13 13 14 14 15 15 15 15 15 15 16 17 17 18 18 18 18 18 18 18 18 18 18 18 19 16 18 26 25 22 20 19 18 19 21 21 22 22 20 18 15 15 15 13 12 12 13 14 14 11 7 3 2 2 1 3 7 3 4 11 10 12 11 7 4 5 6 9 10 5 9 11 19 27 24 20 18 17 22 26 25 26 27 30 34 37 39
11 12 12 12 12 12 13 12 12 12 12 13 14 14 15 15 15 16 16 16 16 16 17 17 17 17 15 18 25 24 21 20 19 18 19 20 22 23 22 20 18 16 15 15 14 13 13 13 13 13 12 10 6 4 3 1 3 5 2 3 6 6 8 4 5 6 4 5 14 11 7 9 12 19 20 15 16 16 15 20 21 21 25 31 35 39 41 40
9 9 9 10 10 10 9 9 9 8 9 9 10 11 12 12 12 12 13 13 13 13 14 15 16 13 12 18 23 21 19 17 15 15 16 18 20 21 21 19 16 15 14 14 14 13 12 12 12 10 8 10 9 6 4 3 3 3 3 5 4 4 8 9 4 6 6 4 13 11 6 8 12 17 17 14 14 12 14 20 22 24 29 34 36 38 41 41
7 8 8 8 7 7 6 5 5 5 6 7 8 10 11 11 12 12 12 12 11 11 11 11 13 10 8 13 17 18 17 14 12 14 15 16 17 18 18 15 13 13 12 13 13 11 11 11 10 8 5 6 6 4 3 4 5 4 5 8 7 8 8 8 8 4 6 4 9 12 7 8 10 14 17 19 18 16 17 24 28 31 33 35 34 33 36 39
6 6 6 6 5 4 4 3 4 5 6 8 9 10 12 13 13 13 12 12 10 8 7 8 8 8 9 13 17 17 15 11 10 11 11 12 14 16 16 14 12 11 11 11 11 9 10 10 7 5 5 4 2 3 3 4 7 4 5 7 7 10 9 8 9 1 6 5 7 10 10 12 14 18 25 26 24 22 24 28 31 34 34 33 31 28 31 35
5 5 5 4 4 4 4 4 5 6 8 10 11 12 14 13 12 13 12 9 5 3 3 4 4 3 7 12 14 12 11 11 12 13 13 12 12 13 13 12 11 10 10 9 9 11 10 8 4 3 4 5 4 5 6 7 10 8 6 7 7 8 9 10 11 3 1 5 6 8 12 15 17 20 27 30 24 23 27 28 29 32 34 33 28 28 35 37
4 5 5 5 5 5 5 6 8 9 10 11 12 14 13 11 11 11 7 4 3 3 3 4 7 5 7 12 15 16 18 19 18 18 17 14 12 11 10 10 10 11 10 7 8 11 10 6 4 4 6 9 9 10 13 13 10 8 7 8 11 10 10 12 14 7 2 7 9 12 15 15 16 17 21 27 24 22 28 29 28 30 30 29 27 30 34 32
5 5 5 6 6 7 8 9 10 11 12 12 14 14 10 9 8 5 5 9 11 12 13 13 15 18 20 23 24 23 23 23 21 18 17 14 10 9 10 10 10 11 7 4 6 8 8 6 6 8 11 12 12 13 16 13 7 7 7 10 12 11 12 13 16 9 2 5 11 12 17 17 17 18 19 27 28 25 27 28 27 28 27 27 30 29 21 20
5 6 6 7 8 9 9 10 10 11 13 13 14 11 7 7 5 4 10 17 19 18 20 22 23 25 27 28 28 25 21 19 20 18 15 11 9 8 10 11 9 7 4 3 4 4 6 8 9 13 14 7 4 5 9 11 9 10 10 11 11 10 13 13 15 12 0 3 9 10 17 17 16 18 19 26 26 22 23 22 24 27 30 30 25 17 13 20
6 7 8 9 9 10 10 10 10 11 11 11 12 10 8 10 8 9 11 13 21 24 21 23 26 28 30 30 32 30 20 14 16 15 12 10 12 9 9 11 7 4 4 5 3 3 5 8 11 15 11 2 2 1 3 8 11 12 9 9 9 8 12 12 11 9 0 2 7 10 15 15 17 21 21 23 21 21 21 18 23 30 31 24 13 12 20 28
9 9 10 11 11 12 11 10 10 10 9 9 10 10 11 12 12 14 11 8 16 23 22 24 26 28 29 29 31 29 20 15 12 11 11 11 12 10 9 10 6 3 5 8 8 5 5 6 12 16 8 3 7 3 3 7 8 9 9 8 8 7 10 8 5 2 0 4 9 13 14 12 15 17 16 17 16 19 21 20 27 32 26 18 15 19 24 24
12 11 11 12 12 11 9 9 9 8 8 9 10 10 12 14 13 15 11 5 8 15 20 20 17 20 22 20 20 18 16 16 11 9 12 13 13 10 9 9 6 4 8 12 12 12 8 2 3 8 6 8 12 7 5 9 8 9 9 8 11 11 11 11 6 5 7 8 6 10 12 7 6 6 4 3 5 9 14 19 23 21 17 17 18 18 17 16
15 13 12 12 11 9 8 8 7 6 8 9 9 10 13 14 13 14 10 4 4 7 12 9 4 7 10 7 7 9 10 12 12 10 11 16 16 8 5 7 6 6 10 10 10 12 9 2 4 4 5 8 10 8 9 10 9 9 8 11 15 14 13 14 11 8 8 6 1 6 10 3 3 4 3 2 2 5 10 16 13 8 9 13 15 16 15 13
15 15 13 12 11 8 8 7 5 5 7 7 8 10 12 12 12 14 8 3 3 2 4 3 1 2 2 1 2 7 6 4 9 12 12 15 17 9 3 5 3 4 5 5 4 6 4 2 3 5 6 6 6 9 11 10 9 9 4 8 13 12 12 12 9 6 5 5 1 3 6 6 4 5 5 6 5 7 13 14 8 6 9 12 15 15 11 11
17 16 15 14 13 12 10 8 7 6 6 6 8 9 10 10 11 12 6 3 3 1 3 1 2 0 1 2 6 6 3 1 3 8 13 14 14 10 6 5 3 2 3 2 3 2 3 4 2 3 5 6 6 9 8 10 8 6 1 1 5 7 9 6 5 5 5 6 3 4 5 9 8 4 5 5 4 10 16 11 6 6 7 10 10 7 9 13
16 15 14 14 14 14 12 12 10 7 6 7 8 8 8 10 10 8 4 5 3 2 3 1 2 1 1 5 8 3 2 1 2 4 12 14 11 8 6 6 4 3 4 4 5 1 3 5 5 6 6 6 8 5 4 11 8 2 3 2 1 1 3 1 3 5 3 6 4 5 6 6 9 2 4 2 5 11 11 4 5 5 6 9 8 11 12 15
14 14 14 14 14 13 13 14 12 9 7 7 8 7 8 10 7 4 1 4 2 2 1 1 2 1 3 6 5 1 2 1 1 3 8 11 10 6 3 4 3 2 4 6 8 3 1 2 5 7 6 6 5 0 3 10 6 1 5 3 3 2 2 1 3 4 3 7 5 7 8 6 10 3 5 3 4 7 5 4 2 4 5 9 13 15 12 15
15 14 15 14 14 14 14 15 13 11 9 7 7 7 8 7 3 1 5 4 2 1 2 2 1 0 3 5 2 2 2 1 3 5 5 4 8 6 1 1 2 2 3 5 8 6 1 3 1 5 6 3 3 3 1 4 2 3 5 1 0 2 1 1 2 1 3 9 5 11 14 8 8 1 6 4 2 3 2 4 3 5 9 14 14 14 13 17
16 16 15 15 15 14 14 15 13 11 9 8 7 6 6 4 0 5 6 2 2 1 3 2 0 1 2 2 0 1 1 0 3 5 3 2 4 4 1 1 2 2 3 4 7 5 3 3 2 4 6 2 4 2 1 3 2 2 2 2 3 2 1 2 1 2 4 8 2 8 12 11 8 3 3 1 1 0 1 3 7 9 11 15 14 17 21 23
17 17 16 16 15 14 14 14 12 11 9 7 5 3 2 2 4 7 3 2 2 2 2 1 0 1 2 1 1 1 1 1 3 3 2 2 3 4 4 4 2 2 4 3 2 1 3 5 2 1 4 6 4 2 2 3 2 3 2 2 4 4 2 3 2 3 6 6 1 3 5 9 11 6 2 6 4 0 2 4 7 10 13 17 20 24 24 24
19 18 18 17 16 14 13 12 12 11 9 6 4 2 2 3 6 3 4 3 1 1 2 1 1 1 2 1 1 2 0 1 4 3 1 2 2 4 5 4 1 3 4 1 2 3 3 1 4 3 3 7 10 6 3 3 5 7 6 5 5 3 3 5 4 3 6 3 2 1 3 6 10 6 6 10 5 3 3 3 8 12 14 17 22 22 22 23
20 20 20 19 18 16 13 12 11 11 9 7 6 3 3 8 5 2 4 6 2 1 1 2 2 1 2 2 1 2 3 2 4 4 2 3 3 3 4 4 4 2 2 1 3 3 5 5 4 5 1 6 12 6 1 2 5 7 4 3 4 4 5 6 4 5 7 3 2 2 3 4 4 1 1 3 3 6 5 7 11 15 16 19 19 19 21 22
21 21 21 21 20 17 15 14 12 11 11 11 7 4 8 9 3 1 5 4 2 2 0 2 3 1 3 3 1 1 5 3 2 3 3 4 4 2 3 4 6 5 2 3 2 1 6 7 1 1 2 4 7 2 3 3 3 2 2 2 4 4 5 5 4 4 4 4 2 3 4 4 3 4 3 0 2 3 4 9 15 18 20 20 19 21 22 23
22 22 23 23 21 18 16 16 14 13 15 13 6 7 10 6 2 3 2 2 2 2 1 1 2 3 5 3 2 1 3 2 1 2 4 4 3 3 3 1 5 11 8 4 3 2 6 6 3 2 1 1 2 1 2 2 2 3 3 4 2 1 1 5 6 1 0 6 5 5 8 6 6 9 2 6 5 6 8 12 17 18 19 20 20 20 21 23
21 22 23 24 21 19 19 18 15 17 19 14 7 8 6 4 7 6 2 3 2 2 2 4 3 4 4 2 2 2 3 2 2 3 3 2 3 4 5 1 2 9 7 3 3 2 6 7 1 3 2 1 1 0 1 2 1 3 3 2 2 2 1 2 4 0 2 7 5 7 13 10 7 7 3 4 6 10 11 12 15 16 18 19 17 17 19 22
18 18 20 20 17 17 20 19 17 21 20 11 9 10 4 3 7 8 5 4 1 1 3 5 4 2 2 4 3 3 5 4 3 3 2 3 4 3 3 1 1 2 4 3 3 0 2 5 2 2 2 2 2 2 2 2 1 0 1 1 1 1 2 2 2 1 4 7 5 7 12 10 8 7 5 10 10 11 10 10 12 13 15 14 13 14 16 19
13 12 11 12 12 17 21 19 21 25 17 7 8 10 5 3 4 6 7 5 1 2 3 6 5 2 2 4 3 1 3 3 3 2 3 3 4 2 2 2 2 1 4 1 3 1 2 4 3 1 0 1 1 3 3 3 1 1 1 2 1 1 2 2 1 0 3 6 5 6 8 6 4 6 12 12 9 10 7 8 9 9 11 11 10 11 12 16
8 6 5 7 10 15 20 21 23 22 12 6 9 7 3 2 1 3 6 5 2 2 3 3 4 5 4 3 2 1 2 1 1 3 3 2 4 2 1 1 2 1 4 5 2 1 1 3 3 0 1 2 3 5 4 4 3 2 1 1 1 1 0 2 2 2 3 6 6 6 6 4 3 7 10 6 9 9 7 8 5 5 8 8 8 9 11 13
9 3 3 8 9 15 24 22 17 12 6 6 9 7 5 4 2 1 2 4 4 2 2 2 3 5 4 3 3 2 1 2 3 4 3 2 5 3 2 3 0 1 2 4 1 2 1 2 4 5 5 6 8 6 5 6 5 4 4 5 6 5 3 5 7 5 5 6 5 6 8 6 4 2 2 7 8 7 7 7 5 5 6 6 7 8 9 12
11 2 4 11 11 20 27 16 9 7 4 7 7 6 7 5 4 4 3 3 3 2 2 2 3 4 5 7 8 5 4 5 5 6 5 4 8 6 2 3 2 1 1 2 1 2 1 2 5 9 9 10 11 5 2 6 8 9 9 7 8 8 7 10 11 6 6 8 6 7 8 4 1 4 8 8 7 7 7 6 6 5 5 7 9 9 10 12
9 3 8 14 18 26 23 9 7 8 5 5 4 6 8 5 3 4 2 3 3 2 2 2 3 6 7 7 8 7 5 5 7 9 8 6 6 3 5 5 2 0 2 3 2 1 0 2 6 8 7 9 11 4 2 1 6 7 6 5 7 8 7 8 7 4 5 6 7 8 6 2 0 3 8 9 9 9 6 5 6 6 5 7 9 11 12 12
7 6 9 16 23 28 18 5 7 9 8 8 7 9 11 7 6 6 3 3 4 2 2 2 4 6 5 2 3 5 5 4 6 7 6 4 2 3 8 9 5 2 2 3 2 2 1 3 4 5 5 6 8 5 1 2 2 2 2 1 2 2 4 5 4 3 4 6 9 9 6 3 3 3 2 6 8 8 6 6 5 6 6 5 6 8 10 10
5 5 7 15 22 21 10 3 4 6 9 11 11 12 12 8 7 9 7 6 7 5 3 3 3 3 3 1 1 2 4 4 4 2 0 0 1 2 5 8 6 2 1 3 3 3 2 3 4 7 9 9 9 7 2 1 1 1 2 2 1 2 5 6 6 7 5 5 7 8 6 5 5 10 13 6 3 4 5 6 4 4 4 3 3 3 5 8
2 2 3 9 15 13 7 2 2 3 6 8 9 9 12 11 7 6 8 10 10 9 8 7 4 2 2 3 5 7 7 6 5 3 3 3 1 1 3 4 5 3 2 1 4 2 1 3 5 9 10 9 10 9 2 1 2 5 5 5 7 8 7 5 5 6 5 6 7 8 10 12 11 15 18 9 3 4 3 4 3 2 1 1 2 4 7 8
1 1 2 4 7 8 5 3 3 3 2 3 4 4 8 12 8 5 8 6 5 7 7 6 5 6 6 6 8 9 8 8 8 6 7 6 2 1 1 2 4 3 0 1 4 2 2 4 7 11 12 11 13 13 5 1 4 7 7 10 11 11 10 9 9 9 7 9 9 8 12 15 11 14 18 9 2 1 1 2 1 2 3 4 6 8 9 9
1 1 3 3 3 3 4 3 3 3 3 2 2 3 4 7 7 6 5 2 1 4 4 3 5 8 8 5 4 4 4 5 6 4 3 2 1 1 1 1 3 5 3 1 2 1 3 7 9 10 12 11 12 12 7 5 7 7 8 12 13 13 14 14 13 13 12 13 12 11 16 18 15 15 12 3 2 2 1 1 2 3 6 7 8 9 9 9
2 1 1 2 1 0 0 0 2 1 5 4 2 4 5 6 8 5 2 1 1 1 3 4 3 2 2 1 2 3 4 3 3 2 1 1 1 1 2 2 2 4 5 3 3 1 2 5 4 4 7 8 8 10 9 8 9 10 11 12 13 16 19 17 16 16 17 18 18 18 22 22 16 8 1 5 4 1 1 3 5 6 8 8 9 10 10 10
2 1 1 1 1 1 1 1 2 0 4 5 5 6 6 8 12 7 0 1 4 3 3 5 2 2 2 1 2 6 6 4 5 5 2 2 2 2 2 2 0 2 3 1 2 3 3 3 2 3 4 6 8 10 11 10 10 11 13 14 15 19 20 17 17 17 16 18 19 19 21 18 7 3 5 4 2 1 2 5 7 8 9 9 11 12 12 12
4 3 2 1 1 2 2 1 1 2 4 5 6 5 6 8 9 4 1 2 2 3 2 1 0 1 2 2 3 6 3 1 1 1 2 1 1 1 1 1 1 2 2 1 1 2 3 3 3 4 5 6 9 11 10 9 12 13 14 17 20 20 18 16 15 13 14 16 17 17 15 9 1 6 4 2 1 2 5 7 9 10 10 11 13 15 15 15
6 5 3 2 0 1 3 2 2 3 3 2 3 3 2 3 0 2 3 1 5 4 4 5 3 1 2 3 4 4 4 5 4 2 4 5 6 6 6 7 6 5 3 1 1 2 3 3 4 5 5 6 11 11 5 5 9 11 10 13 17 18 17 17 15 15 18 17 15 12 7 1 4 5 2 1 3 4 7 8 10 11 11 13 15 17 20 19
Wind_Direction
346 350 352 2 4 8 9 11 14 12 16 13 13 12 4 1 353 340 332 335 332 333 333 334 333 331 334 332 331 331 329 327 322 315 314 309 279 334 347 335 308 262 247 234 232 234 233 231 228 225 216 205 211 208 203 202 186 191 214 247 250 253 237 202 216 213 290 297 278 252 228 248 270 273 282 288 270 265 272 271 266 263 264 269 272 277 281 284
318 320 325 329 331 339 340 342 341 342 340 337 337 326 321 310 300 292 292 293 297 306 310 315 318 320 323 323 326 326 326 327 317 312 306 257 102 356 348 342 338 281 245 229 225 226 233 238 235 228 212 206 216 210 211 203 190 206 232 243 246 252 226 191 230 226 231 274 289 287 269 259 273 291 284 278 273 271 275 274 267 264 270 276 278 280 281 281
298 299 299 300 304 307 307 311 312 312 313 312 310 307 305 301 299 295 295 293 295 300 302 308 311 314 316 318 322 323 329 327 315 307 249 156 43 5 341 328 331 311 246 232 224 223 233 236 234 225 212 214 216 205 209 206 205 216 220 246 250 247 241 224 237 237 244 271 288 286 285 276 272 276 267 266 277 274 269 272 265 262 274 281 285 288 286 282
289 289 289 290 292 293 294 297 297 298 299 297 296 298 296 296 295 294 296 295 296 297 299 303 305 308 311 313 316 319 329 324 310 288 192 182 347 342 332 312 301 308 240 235 231 231 235 232 231 217 214 223 210 209 220 213 206 187 201 246 259 235 254 242 240 248 256 268 275 280 289 283 275 273 254 249 277 270 262 268 268 273 283 287 287 290 289 285
284 285 286 287 288 289 290 290 290 292 292 291 293 293 293 294 293 294 295 294 296 297 299 300 301 303 304 307 309 314 327 326 315 234 205 246 306 316 314 293 277 277 236 237 234 236 234 229 228 213 219 231 195 204 223 209 204 204 221 246 260 242 260 255 245 258 263 265 269 273 280 281 280 270 247 232 251 262 269 277 279 283 289 288 285 287 288 287
279 281 282 283 285 285 286 286 287 288 288 289 290 290 292 292 292 293 293 295 296 296 298 297 298 299 300 302 301 303 305 289 292 281 272 285 295 298 291 277 262 254 254 247 239 236 231 223 219 208 217 233 212 216 224 201 205 240 240 240 255 250 253 261 254 262 266 262 262 264 278 284 277 271 254 229 240 261 276 282 284 289 289 288 288 287 288 288
277 278 279 281 282 283 284 284 285 286 287 287 287 288 289 288 289 290 290 291 291 292 293 292 293 293 294 295 294 293 264 265 288 289 287 289 285 283 274 263 250 255 263 256 249 239 232 221 215 210 216 240 227 220 229 209 203 238 259 245 257 256 253 261 259 260 265 261 263 272 283 282 268 273 267 233 247 269 282 286 287 291 290 288 289 288 290 291
275 277 279 281 282 283 283 285 286 286 286 285 286 286 285 285 285 286 286 286 286 286 286 286 287 288 289 289 292 288 258 273 294 294 287 279 269 270 259 247 249 264 265 260 257 248 238 223 217 213 222 240 232 215 216 226 209 221 250 259 260 261 261 267 268 265 266 262 266 272 273 273 270 277 276 258 264 275 283 288 288 289 288 286 287 289 291 292
272 275 276 278 279 281 282 283 283 283 284 284 284 284 283 283 283 283 283 283 283 283 283 284 284 284 286 285 288 280 268 284 297 287 282 273 265 261 251 251 261 268 263 258 253 245 235 225 226 226 239 248 240 231 199 223 225 210 241 265 267 270 272 274 274 268 265 262 260 260 262 269 274 284 279 267 270 277 281 286 287 286 286 287 290 293 293 292
269 271 273 275 276 277 278 280 281 283 285 285 285 285 285 284 284 284 284 284 283 282 282 282 282 282 282 282 281 269 276 289 291 280 283 280 274 265 259 261 267 269 263 256 250 247 242 244 246 237 246 253 243 235 193 213 255 244 263 278 273 275 277 273 273 268 259 257 244 237 260 268 273 287 276 266 271 278 278 282 285 286 287 291 294 297 298 296
269 271 273 275 276 278 279 281 284 286 287 287 287 286 286 286 286 286 285 285 283 283 282 280 281 279 279 277 262 257 277 284 282 283 282 278 276 270 266 262 263 264 258 256 255 257 253 252 247 227 233 236 230 228 217 231 257 303 305 289 278 276 279 267 262 262 246 244 236 225 256 270 269 245 256 265 269 273 278 282 284 285 288 293 296 298 299 296
270 272 274 276 279 280 283 285 287 289 289 289 288 287 287 286 286 286 285 285 283 282 280 279 278 275 277 273 261 263 279 282 280 281 277 275 273 270 267 261 258 255 251 254 255 258 251 245 236 225 232 234 228 223 239 237 243 285 295 288 286 283 285 268 251 253 221 212 217 200 247 266 248 233 254 266 269 271 277 280 282 283 286 289 291 293 292 292
272 274 277 279 281 284 287 290 293 295 294 293 294 292 291 290 290 289 286 285 284 281 279 277 275 273 272 269 269 274 281 280 279 278 275 273 270 267 265 260 258 251 248 247 247 247 238 239 233 229 240 245 244 245 298 32 229 270 265 276 292 289 287 267 225 213 191 195 181 174 251 268 248 250 260 266 267 272 272 271 276 278 282 284 286 288 289 290
274 276 280 282 284 289 293 297 300 301 302 301 301 298 297 297 295 292 290 288 284 280 277 273 270 270 264 264 275 280 279 278 278 275 273 272 269 267 264 262 260 254 250 247 245 240 229 229 225 227 241 242 249 271 292 342 248 275 281 242 275 277 279 268 151 155 197 192 171 181 263 270 269 271 274 276 269 272 268 268 274 273 278 282 283 286 288 289
277 281 284 286 290 294 297 301 304 307 311 310 310 308 306 304 301 300 298 294 290 285 278 271 267 264 261 268 275 278 278 278 279 276 271 267 265 266 266 264 260 253 248 242 238 233 223 213 211 218 239 241 245 263 277 292 262 252 270 260 234 234 267 281 266 197 219 196 172 192 259 265 268 275 280 287 281 276 271 275 279 278 279 281 281 283 286 290
279 284 287 292 296 300 306 308 313 324 326 324 325 319 315 313 311 307 304 301 299 290 280 271 264 252 252 272 273 274 278 280 281 278 271 266 263 262 263 262 256 246 237 232 228 223 209 193 199 210 227 246 237 237 267 287 266 220 235 264 256 257 274 288 288 224 182 168 187 213 256 273 271 280 282 284 286 286 281 282 284 283 282 282 281 281 284 288
281 286 289 297 299 306 320 320 329 338 335 333 331 328 324 320 314 309 306 305 301 293 278 266 255 244 248 262 270 273 278 283 286 283 278 271 261 256 256 251 242 231 219 216 208 194 186 179 190 207 218 241 198 197 251 261 258 236 217 246 252 257 271 284 289 295 146 182 213 224 241 259 269 283 285 283 287 286 282 281 282 283 283 282 283 282 283 285
284 287 289 296 300 309 321 326 331 333 340 339 334 336 331 322 316 310 307 306 304 305 286 243 201 222 248 250 260 273 283 287 288 287 285 274 260 252 246 239 231 210 190 188 181 174 175 173 190 221 220 223 194 194 227 234 245 258 256 267 275 252 248 261 270 295 156 239 242 237 244 256 266 274 279 283 286 283 280 280 279 279 280 282 283 282 285 287
280 285 294 300 304 312 321 330 332 333 341 342 338 340 336 328 321 311 305 310 296 287 286 218 199 240 270 262 266 277 284 285 284 282 276 268 256 240 224 219 207 180 169 171 173 176 174 161 176 218 224 223 212 202 221 235 250 280 290 280 284 276 261 262 266 272 314 281 267 260 265 271 274 275 280 286 288 281 278 279 277 275 278 282 281 281 286 292
289 297 309 315 318 323 327 332 335 336 338 340 344 346 347 344 332 308 299 301 291 283 280 267 252 257 265 270 275 278 279 279 277 273 267 261 244 215 194 183 176 175 179 172 173 177 184 193 192 210 225 230 223 213 228 249 286 303 285 269 269 275 273 271 274 275 104 282 272 267 276 280 279 279 280 283 283 274 270 274 275 277 280 281 280 283 291 299
307 312 318 326 331 332 331 333 336 338 339 342 350 358 11 4 340 308 313 305 299 292 284 281 270 261 263 267 269 270 271 274 271 264 259 245 208 187 178 169 169 188 188 125 123 145 192 216 213 221 232 242 249 231 242 260 276 269 263 270 268 263 269 267 273 282 86 269 272 262 274 280 278 276 273 273 272 267 267 273 278 280 280 278 281 293 309 306
305 310 315 321 328 333 332 335 335 337 342 344 352 6 12 358 337 324 321 300 299 301 291 283 272 261 263 261 256 257 258 264 265 255 246 216 188 186 172 171 191 198 154 137 141 162 207 228 227 230 239 299 357 21 244 252 257 260 257 265 265 264 276 268 258 274 68 255 281 279 280 282 274 269 265 263 261 268 273 271 271 273 273 276 292 312 309 307
299 305 309 310 316 324 323 329 333 335 342 345 355 5 359 349 340 334 329 281 292 302 290 276 265 259 261 258 254 253 246 246 256 248 235 204 185 191 178 178 203 180 161 191 205 216 224 224 230 235 233 241 256 232 229 259 252 246 244 258 270 264 272 269 242 256 257 261 283 292 286 274 265 260 258 267 268 268 270 262 260 263 267 280 298 302 305 313
300 301 304 306 309 316 315 320 326 329 338 349 355 355 349 344 342 340 333 274 277 296 282 270 262 259 263 263 259 249 236 238 246 246 235 211 187 187 191 190 193 192 205 208 213 233 240 155 201 234 213 223 247 238 226 257 258 239 229 243 263 261 262 267 279 317 302 271 271 298 291 267 248 237 221 287 273 256 264 262 257 260 271 286 293 300 315 331
293 292 297 301 304 312 309 306 314 325 337 347 349 347 348 346 345 347 338 280 254 271 267 267 268 260 258 266 259 228 221 232 232 229 221 206 193 179 181 189 195 222 219 206 217 244 251 144 134 199 198 210 233 239 227 235 262 260 220 222 248 264 271 274 289 318 305 274 88 339 313 290 166 163 124 107 241 274 274 260 252 260 279 286 295 309 330 352
279 283 288 289 295 302 299 296 297 316 331 338 344 347 350 351 349 350 344 277 262 234 229 247 241 226 230 287 206 185 191 223 227 219 202 197 196 188 182 176 188 251 213 186 224 254 253 192 186 206 196 183 205 245 232 214 252 273 226 214 240 259 267 273 289 300 293 295 36 15 309 289 244 215 237 248 255 275 265 257 259 274 281 289 300 316 349 23
270 276 277 279 285 284 284 287 284 303 323 327 337 344 350 356 356 355 348 267 280 111 121 155 190 231 290 207 162 165 194 155 178 202 195 194 194 199 222 190 170 233 156 155 248 232 187 176 150 173 180 175 205 243 223 189 227 271 24 192 229 249 261 264 276 262 281 314 305 179 222 274 283 243 225 230 219 247 255 271 299 293 305 307 316 5 40 36
270 272 270 274 279 274 274 279 280 293 306 312 325 330 345 352 351 356 335 278 310 81 107 112 136 56 45 162 161 141 15 112 133 184 188 193 190 192 234 229 211 200 161 199 245 222 153 181 176 166 172 201 216 233 169 175 214 279 60 40 148 250 281 253 267 264 291 312 291 178 182 259 282 246 122 152 204 233 245 289 324 320 340 324 354 40 38 32
271 270 269 272 276 272 270 274 276 278 286 302 311 316 343 349 348 12 251 262 337 71 142 158 142 72 95 144 175 249 6 27 29 156 175 192 196 190 247 240 212 198 188 224 250 263 81 164 187 174 185 221 214 55 147 180 208 130 117 98 88 91 55 105 269 290 302 288 267 167 170 252 285 250 127 147 228 237 206 122 314 316 10 356 16 37 33 37
270 271 270 269 269 266 265 269 270 270 275 284 292 311 336 341 341 276 235 240 340 54 152 180 184 107 139 155 189 264 284 344 79 130 148 181 201 204 302 266 163 203 221 244 257 255 109 87 142 201 221 233 116 76 94 171 147 121 141 110 96 167 116 116 262 326 288 273 232 166 177 220 289 263 147 165 220 259 175 111 321 346 19 3 19 46 44 46
267 267 267 265 262 259 259 261 263 264 264 267 282 306 322 335 226 235 242 264 331 211 143 152 142 109 146 169 225 152 203 305 115 152 162 136 188 202 274 220 158 193 232 242 251 244 177 179 209 219 222 190 115 124 71 76 85 155 188 310 295 249 186 175 182 138 246 267 201 158 179 202 245 247 148 160 38 205 233 328 346 10 359 345 16 44 43 47
262 261 260 260 258 255 254 255 258 257 254 256 265 278 332 322 235 225 211 45 337 228 143 125 315 133 124 59 278 151 130 209 156 179 188 149 198 200 216 222 181 243 255 225 244 261 204 205 183 217 223 194 185 190 136 111 143 193 202 226 265 279 265 241 226 174 237 260 89 131 182 210 242 249 232 272 291 123 219 292 348 0 336 348 23 34 38 47
261 261 260 258 255 253 250 250 250 246 244 237 219 172 91 247 245 208 157 178 260 29 89 92 66 100 146 202 220 149 117 197 161 185 181 145 235 225 226 234 164 273 275 241 304 290 265 223 150 176 241 195 191 202 214 190 172 188 194 192 216 241 261 258 245 243 261 263 62 68 180 233 268 272 246 258 277 64 71 355 358 352 351 19 37 37 42 47
261 260 260 256 255 251 245 243 239 236 236 211 176 149 208 234 241 95 174 204 236 9 84 106 84 103 193 232 268 166 227 235 146 171 188 161 218 236 228 216 185 227 281 257 277 260 266 286 179 175 163 174 189 207 300 113 160 189 185 183 218 224 246 259 247 260 282 310 61 133 187 243 285 10 290 284 9 31 16 16 14 17 36 53 52 46 45 44
261 258 255 252 250 247 243 237 224 218 216 197 172 189 226 232 235 218 217 208 240 273 155 103 113 202 228 219 268 214 224 239 120 146 194 194 214 225 213 198 180 180 187 238 251 185 243 266 122 98 9 158 186 181 64 105 173 178 112 181 242 232 230 262 280 272 305 319 260 193 228 254 273 294 291 183 73 29 21 44 45 44 53 57 48 40 40 41
262 258 253 249 244 238 236 230 214 205 200 189 187 222 227 231 212 217 219 167 190 194 195 229 172 224 252 217 202 201 191 213 145 173 204 209 232 229 224 235 178 185 186 214 235 228 257 264 84 83 342 123 202 164 125 223 203 134 155 200 207 67 221 257 277 262 201 276 252 225 256 258 272 283 230 134 115 98 77 58 58 53 50 51 43 36 35 39
263 258 254 250 243 233 228 223 208 199 194 187 210 229 224 227 215 214 174 130 155 125 171 248 212 205 246 234 204 160 162 199 179 191 210 207 226 205 205 262 170 196 213 273 248 234 273 271 177 145 168 104 284 221 153 239 205 143 187 214 96 54 14 250 273 264 207 255 246 240 260 264 274 272 139 79 27 68 68 48 53 50 46 49 41 33 36 40
264 260 257 255 247 226 219 215 198 192 190 188 228 234 231 221 210 207 186 163 176 134 191 242 235 194 241 255 253 140 165 198 169 181 209 209 216 157 157 219 99 201 289 301 239 215 318 271 239 136 157 139 174 220 195 206 236 139 265 341 64 217 234 193 219 233 234 251 247 237 253 263 264 264 310 339 10 62 59 42 49 45 45 49 42 37 38 41
259 259 259 255 236 213 207 202 189 189 192 200 230 228 231 238 215 212 208 197 177 155 211 238 236 250 253 239 256 155 187 200 159 199 223 217 233 131 111 221 147 58 349 338 223 292 14 269 269 104 114 8 184 216 208 182 162 36 1 338 357 250 251 231 181 182 241 253 257 239 240 248 250 281 311 335 44 76 61 56 57 50 56 56 49 45 39 42
234 233 237 220 212 198 187 182 184 191 199 218 225 224 231 252 246 216 211 204 187 177 221 232 217 236 248 226 226 238 249 225 171 241 252 248 263 252 69 337 145 120 15 22 341 352 40 285 280 156 315 299 237 212 212 202 173 145 173 237 275 206 263 283 249 197 222 250 259 253 244 238 258 296 311 1 75 77 68 75 66 57 72 73 67 59 47 45
188 190 212 196 193 176 168 171 187 198 211 229 232 238 243 251 269 262 221 210 221 232 229 225 229 244 261 267 245 217 224 230 213 235 244 239 250 245 54 32 341 194 29 19 352 200 214 262 246 252 255 246 239 225 217 222 210 207 223 219 224 222 219 257 248 209 201 228 233 250 256 250 252 296 47 88 93 85 82 85 76 61 62 68 74 69 56 48
174 165 185 181 172 163 163 173 200 202 212 226 227 230 236 251 256 248 254 228 226 242 220 213 239 246 251 258 260 260 251 247 239 236 238 230 234 241 12 14 295 222 224 300 271 189 217 218 233 254 254 256 268 272 213 231 236 244 250 239 234 231 223 242 252 245 235 234 228 244 255 262 331 82 99 107 114 114 111 107 102 87 58 55 61 62 59 50
178 171 164 164 162 165 169 187 209 200 223 233 222 225 228 242 252 232 223 208 214 224 212 214 231 236 242 252 255 255 251 246 240 239 245 247 241 276 7 1 345 318 275 284 304 35 13 237 250 263 266 276 281 279 99 200 227 233 248 242 240 243 241 247 256 269 262 245 246 255 251 245 339 134 131 133 134 129 121 109 106 101 79 62 59 58 56 49
183 180 168 165 168 174 182 206 203 206 226 229 235 241 238 249 257 243 225 198 207 201 194 239 239 230 241 272 251 243 247 247 244 245 246 250 248 45 31 21 24 20 342 328 316 319 281 232 252 277 288 293 280 254 143 104 166 207 264 224 210 258 302 297 273 258 247 222 228 248 254 213 202 210 172 140 134 127 110 93 88 92 89 75 67 62 54 49
170 190 188 184 184 189 206 241 206 212 218 223 236 242 243 253 252 242 243 238 227 215 218 255 247 223 233 330 25 246 235 231 254 281 18 211 252 43 27 28 46 81 71 36 16 348 292 252 256 268 267 267 272 272 267 97 106 311 302 249 243 293 301 298 277 259 255 231 227 245 267 262 267 297 301 305 73 81 91 90 78 88 95 86 76 57 38 38
158 204 187 196 207 218 236 244 219 218 213 218 230 237 240 245 242 222 228 243 241 229 234 247 239 207 218 227 247 256 243 224 220 237 258 259 257 59 40 53 76 107 156 55 36 50 260 270 255 260 263 262 276 287 309 47 285 270 276 277 279 283 277 270 261 254 267 284 264 255 273 279 285 291 290 294 17 19 32 70 73 84 73 1 351 351 1 10
174 236 141 178 221 231 226 218 211 212 209 202 215 242 241 235 236 217 210 228 231 210 224 246 224 211 218 227 241 252 251 238 226 229 252 260 260 38 47 79 62 45 178 349 34 96 206 258 243 249 260 261 272 281 282 289 260 247 255 264 263 263 255 244 246 253 270 280 267 260 273 276 275 277 279 287 357 42 23 22 358 336 319 310 318 329 340 349
160 209 134 144 202 227 219 218 198 208 229 199 206 277 252 223 228 225 205 205 149 187 219 240 215 219 229 226 219 230 240 236 225 212 225 262 306 347 344 86 63 41 41 6 17 114 229 261 254 261 271 268 273 279 272 261 263 254 252 258 262 263 257 251 252 254 256 259 263 272 274 270 270 272 274 301 64 134 167 303 290 297 296 291 299 307 310 322
188 218 164 164 201 337 279 319 59 211 229 214 216 252 249 240 243 232 130 54 278 197 225 235 221 221 248 179 172 235 256 254 260 254 177 175 238 234 269 254 127 65 46 16 328 312 250 263 275 297 293 286 287 287 283 281 279 272 263 263 268 268 265 266 267 262 257 257 261 266 266 266 272 280 291 85 76 89 246 279 275 276 278 275 277 282 284 290
187 188 167 160 140 77 42 345 34 318 234 225 238 246 239 244 248 243 155 284 247 234 247 255 266 49 61 105 216 258 270 273 274 274 210 176 209 199 251 271 146 44 23 2 310 320 296 280 348 9 301 286 282 278 280 285 283 281 278 274 268 265 265 267 266 265 263 262 261 260 261 264 268 81 91 101 88 28 296 290 289 285 282 274 270 273 275 276
195 180 157 136 140 142 142 128 122 213 232 221 227 244 244 245 247 239 62 6 288 254 247 229 169 89 124 173 230 252 257 117 171 212 95 116 276 328 335 327 30 356 332 243 247 316 299 284 316 319 289 278 280 280 286 298 293 283 276 269 263 260 260 257 255 257 259 263 265 263 263 267 146 104 104 148 176 313 294 288 292 290 284 278 275 278 280 283
210 211 191 167 206 164 156 151 170 203 224 218 217 235 244 250 273 162 204 76 63 70 87 95 89 71 186 225 244 220 166 122 106 48 356 322 297 291 279 266 264 262 252 258 274 261 266 273 285 290 282 272 278 284 318 341 297 273 257 257 259 258 259 259 257 257 256 260 266 267 269 267 124 130 123 181 223 262 280 283 288 292 289 283 282 285 288 290
Height
1565 1565 1565 1565 1565 1565 1565 1565 1565 1565 1565 1565 1565 1565 1565 1565 1565 1565 1564 1564 1564 1564 1564 1563 1563 1563 1562 1562 1561 1560 1560 1559 1558 1557 1556 1555 1555 1554 1554 1553 1553 1553 1553 1553 1554 1554 1555 1555 1555 1555 1555 1555 1556 1555 1556 1555 1556 1556 1554 1555 1553 1548 1547 1544 1544 1543 1541 1538 1537 1536 1538 1538 1537 1537 1537 1536 1534 1533 1530 1528 1527 1526 1525 1524 1523 1523 1523 1523
1564 1564 1564 1565 1564 1564 1565 1564 1564 1564 1564 1564 1564 1564 1564 1564 1564 1564 1564 1564 1564 1563 1563 1563 1563 1562 1561 1561 1560 1560 1559 1558 1556 1555 1554 1554 1554 1554 1553 1553 1552 1552 1552 1553 1553 1554 1554 1554 1555 1555 1555 1555 1555 1555 1555 1555 1555 1554 1553 1554 1550 1543 1542 1541 1540 1540 1540 1538 1536 1536 1537 1537 1537 1537 1537 1535 1532 1532 1528 1524 1524 1523 1520 1521 1521 1521 1521 1521
1563 1564 1564 1564 1564 1564 1564 1564 1564 1564 1564 1564 1564 1563 1563 1563 1563 1563 1563 1563 1563 1563 1562 1562 1562 1561 1561 1560 1559 1559 1558 1557 1554 1552 1552 1553 1553 1553 1553 1552 1552 1552 1552 1552 1552 1553 1553 1554 1554 1554 1555 1555 1554 1555 1554 1554 1554 1552 1553 1552 1544 1539 1539 1540 1540 1539 1539 1538 1537 1537 1536 1536 1535 1535 1536 1533 1531 1530 1526 1521 1521 1520 1517 1518 1519 1519 1520 1519
1563 1563 1563 1563 1563 1563 1563 1563 1563 1563 1563 1563 1563 1563 1563 1563 1562 1562 1562 1562 1562 1562 1562 1561 1561 1560 1560 1559 1558 1558 1557 1556 1552 1551 1551 1552 1552 1552 1552 1552 1552 1551 1551 1552 1552 1552 1553 1553 1553 1554 1554 1554 1554 1554 1553 1552 1552 1551 1550 1546 1539 1538 1539 1538 1538 1538 1538 1538 1537 1537 1536 1534 1533 1533 1533 1532 1531 1527 1521 1519 1519 1517 1516 1517 1517 1517 1517 1517
1562 1562 1562 1562 1562 1562 1562 1562 1562 1562 1562 1562 1562 1562 1562 1562 1561 1561 1561 1561 1561 1561 1561 1560 1560 1559 1559 1558 1558 1557 1557 1556 1551 1551 1552 1552 1552 1551 1551 1551 1551 1551 1551 1551 1551 1551 1552 1552 1552 1553 1553 1552 1552 1553 1551 1550 1550 1549 1544 1540 1538 1539 1538 1536 1537 1537 1537 1537 1537 1537 1535 1532 1530 1530 1529 1529 1529 1522 1517 1517 1516 1515 1514 1514 1515 1514 1513 1513
1561 1561 1561 1561 1561 1561 1561 1561 1561 1561 1561 1561 1561 1561 1561 1561 1560 1560 1560 1560 1560 1560 1559 1559 1559 1558 1557 1557 1556 1556 1557 1555 1551 1551 1552 1551 1551 1550 1550 1550 1550 1550 1550 1550 1550 1551 1551 1551 1552 1552 1552 1551 1550 1549 1548 1547 1549 1546 1539 1538 1538 1538 1537 1535 1536 1536 1536 1537 1536 1536 1533 1530 1529 1526 1523 1525 1523 1517 1514 1515 1514 1512 1512 1511 1510 1510 1510 1509
1560 1560 1560 1560 1560 1560 1560 1560 1560 1560 1560 1560 1560 1560 1560 1559 1559 1559 1559 1559 1559 1558 1558 1558 1557 1557 1556 1555 1555 1554 1555 1553 1550 1551 1551 1550 1550 1549 1549 1549 1549 1549 1549 1549 1549 1550 1550 1550 1550 1550 1550 1549 1548 1546 1546 1546 1547 1545 1539 1537 1537 1537 1535 1534 1535 1535 1535 1536 1535 1534 1532 1528 1526 1523 1519 1519 1517 1513 1511 1511 1510 1509 1509 1508 1506 1507 1507 1506
1559 1559 1559 1559 1559 1559 1559 1559 1559 1559 1559 1559 1558 1558 1558 1558 1558 1557 1557 1557 1557 1557 1556 1556 1556 1555 1555 1554 1553 1552 1551 1549 1549 1549 1549 1549 1548 1548 1548 1548 1548 1548 1548 1548 1548 1549 1549 1549 1549 1549 1548 1547 1545 1545 1546 1545 1545 1544 1539 1536 1536 1535 1533 1533 1533 1533 1533 1534 1533 1533 1530 1523 1522 1522 1514 1512 1513 1510 1508 1507 1507 1506 1505 1505 1504 1504 1505 1504
1557 1557 1557 1558 1558 1558 1558 1558 1558 1557 1557 1557 1557 1557 1556 1556 1556 1556 1556 1555 1555 1555 1554 1554 1554 1553 1553 1552 1552 1549 1546 1546 1548 1547 1547 1547 1547 1547 1547 1547 1547 1547 1547 1547 1547 1548 1547 1548 1547 1547 1546 1545 1544 1544 1544 1545 1541 1539 1538 1536 1535 1533 1532 1532 1530 1531 1531 1531 1531 1531 1527 1521 1520 1520 1508 1503 1508 1506 1506 1505 1504 1504 1502 1502 1502 1502 1502 1502
1556 1556 1556 1556 1556 1556 1556 1556 1556 1556 1556 1555 1555 1555 1554 1554 1554 1554 1554 1553 1553 1553 1552 1552 1552 1552 1551 1550 1551 1546 1541 1545 1546 1546 1546 1546 1545 1545 1545 1545 1545 1545 1545 1545 1546 1546 1546 1546 1545 1546 1546 1544 1544 1543 1543 1543 1539 1537 1538 1537 1534 1532 1530 1529 1528 1528 1528 1527 1528 1528 1524 1518 1519 1521 1506 1497 1503 1504 1504 1503 1501 1502 1500 1500 1500 1499 1499 1498
1554 1554 1555 1554 1555 1554 1554 1554 1554 1554 1554 1553 1553 1552 1552 1552 1552 1551 1551 1551 1550 1550 1550 1550 1550 1550 1549 1549 1548 1542 1539 1543 1544 1544 1545 1544 1543 1543 1543 1543 1543 1543 1544 1544 1544 1544 1545 1545 1545 1545 1545 1543 1542 1542 1542 1541 1539 1538 1539 1536 1532 1530 1527 1525 1525 1523 1524 1524 1523 1525 1523 1517 1518 1518 1503 1496 1501 1502 1502 1500 1499 1499 1498 1498 1497 1496 1496 1494
1553 1553 1553 1553 1553 1553 1553 1553 1552 1552 1552 1551 1551 1550 1550 1549 1549 1549 1549 1548 1548 1548 1547 1547 1547 1547 1547 1545 1541 1538 1539 1541 1541 1542 1542 1541 1541 1540 1540 1541 1541 1541 1542 1542 1543 1543 1543 1543 1544 1544 1543 1542 1541 1541 1540 1539 1540 1539 1539 1536 1530 1528 1523 1518 1519 1518 1519 1521 1520 1524 1523 1516 1512 1507 1497 1496 1499 1499 1500 1498 1496 1496 1495 1495 1494 1493 1492 1490
1551 1551 1551 1551 1551 1551 1551 1551 1550 1550 1550 1549 1548 1548 1548 1547 1547 1546 1546 1546 1545 1545 1545 1545 1545 1545 1545 1541 1536 1536 1538 1538 1539 1539 1539 1539 1538 1538 1538 1538 1539 1540 1540 1540 1541 1541 1542 1542 1543 1543 1542 1542 1541 1540 1539 1539 1541 1538 1539 1538 1531 1528 1520 1511 1514 1516 1516 1518 1518 1522 1521 1509 1502 1497 1494 1496 1497 1497 1497 1495 1493 1493 1492 1492 1491 1490 1488 1486
1549 1549 1549 1549 1549 1549 1549 1549 1549 1548 1548 1547 1547 1546 1545 1545 1545 1544 1544 1543 1543 1543 1542 1543 1542 1543 1543 1537 1533 1534 1535 1535 1536 1536 1537 1536 1535 1535 1536 1536 1537 1538 1538 1538 1539 1539 1540 1540 1542 1542 1542 1542 1541 1540 1540 1540 1540 1537 1538 1537 1533 1532 1520 1508 1512 1515 1515 1517 1516 1520 1519 1506 1496 1493 1493 1495 1495 1495 1495 1492 1491 1490 1489 1488 1486 1486 1483 1481
1548 1548 1548 1548 1548 1548 1548 1548 1547 1547 1547 1546 1545 1545 1544 1544 1543 1542 1542 1541 1541 1541 1540 1540 1540 1541 1540 1535 1532 1532 1532 1533 1534 1534 1534 1534 1533 1533 1533 1534 1535 1535 1536 1537 1537 1537 1538 1539 1540 1541 1540 1540 1540 1541 1540 1539 1537 1537 1538 1533 1529 1530 1519 1509 1509 1510 1511 1514 1516 1518 1514 1504 1495 1491 1492 1493 1493 1494 1493 1491 1489 1487 1485 1483 1481 1481 1479 1477
1547 1547 1547 1547 1547 1547 1547 1547 1546 1546 1546 1545 1544 1544 1543 1542 1541 1541 1540 1539 1539 1538 1538 1538 1538 1539 1538 1533 1530 1530 1530 1531 1532 1532 1531 1531 1532 1531 1531 1532 1533 1533 1534 1535 1536 1537 1537 1538 1539 1539 1540 1538 1539 1539 1540 1540 1536 1534 1536 1531 1526 1524 1518 1512 1508 1505 1508 1512 1514 1515 1509 1501 1494 1491 1492 1491 1491 1492 1491 1488 1485 1482 1479 1477 1476 1476 1474 1473
1546 1546 1546 1546 1546 1546 1546 1546 1546 1545 1545 1544 1543 1543 1542 1541 1540 1539 1538 1538 1537 1536 1537 1536 1536 1538 1535 1530 1529 1528 1528 1529 1530 1530 1529 1529 1530 1529 1530 1531 1531 1532 1533 1534 1535 1536 1537 1538 1539 1538 1538 1538 1537 1538 1543 1544 1536 1528 1529 1528 1524 1522 1520 1516 1507 1505 1509 1509 1510 1512 1508 1501 1495 1492 1491 1489 1490 1490 1487 1485 1481 1478 1475 1473 1472 1472 1470 1468
1545 1545 1545 1546 1546 1546 1546 1545 1545 1544 1544 1543 1542 1541 1540 1539 1538 1538 1537 1536 1536 1535 1535 1535 1536 1537 1532 1528 1527 1527 1527 1528 1528 1528 1528 1527 1528 1528 1529 1529 1530 1531 1532 1533 1534 1535 1536 1537 1538 1537 1536 1536 1535 1537 1541 1537 1526 1521 1522 1523 1521 1520 1521 1518 1510 1506 1507 1508 1509 1510 1506 1500 1495 1492 1489 1487 1489 1487 1482 1480 1478 1474 1470 1469 1469 1468 1466 1464
1545 1545 1545 1545 1545 1545 1545 1544 1544 1543 1543 1542 1541 1540 1539 1538 1537 1536 1536 1535 1535 1534 1534 1534 1534 1533 1529 1525 1525 1526 1526 1526 1525 1526 1525 1525 1526 1526 1527 1528 1529 1531 1532 1532 1533 1534 1535 1536 1538 1537 1533 1529 1528 1529 1528 1522 1518 1519 1522 1522 1521 1519 1517 1513 1508 1504 1506 1508 1507 1505 1500 1495 1493 1490 1486 1484 1486 1485 1478 1475 1473 1469 1467 1467 1466 1464 1463 1463
1544 1544 1544 1544 1544 1544 1544 1543 1543 1542 1542 1541 1540 1539 1538 1538 1536 1535 1535 1534 1534 1533 1532 1532 1531 1529 1526 1524 1524 1525 1524 1523 1523 1523 1522 1523 1524 1525 1526 1528 1529 1530 1530 1529 1531 1532 1533 1533 1533 1530 1524 1520 1520 1521 1519 1518 1520 1524 1525 1524 1521 1519 1514 1508 1504 1503 1506 1508 1502 1499 1495 1492 1491 1487 1484 1482 1480 1478 1474 1471 1469 1466 1465 1463 1461 1461 1463 1463
1543 1543 1543 1543 1543 1543 1543 1542 1542 1542 1541 1540 1539 1538 1539 1539 1538 1536 1534 1532 1531 1531 1529 1528 1527 1525 1523 1522 1522 1522 1522 1521 1520 1520 1520 1521 1522 1524 1525 1526 1528 1528 1528 1529 1530 1532 1533 1531 1526 1521 1518 1518 1519 1520 1521 1522 1523 1524 1524 1522 1519 1518 1512 1505 1503 1502 1505 1507 1500 1497 1494 1490 1488 1484 1480 1478 1473 1470 1469 1469 1467 1463 1461 1459 1459 1461 1463 1462
1542 1542 1541 1541 1541 1542 1542 1542 1541 1541 1540 1539 1539 1538 1539 1539 1538 1537 1536 1531 1526 1526 1525 1523 1521 1519 1518 1519 1518 1519 1521 1520 1518 1518 1519 1520 1521 1522 1523 1525 1525 1525 1526 1529 1529 1531 1532 1528 1522 1518 1518 1520 1522 1523 1524 1524 1524 1523 1522 1521 1519 1516 1508 1502 1502 1502 1506 1507 1498 1494 1492 1488 1483 1477 1473 1470 1468 1466 1466 1468 1466 1460 1456 1456 1460 1462 1461 1461
1541 1541 1541 1540 1540 1541 1541 1541 1541 1540 1540 1539 1538 1538 1538 1537 1537 1536 1535 1532 1524 1520 1519 1517 1515 1514 1513 1514 1514 1516 1518 1517 1517 1516 1518 1520 1520 1521 1522 1522 1523 1524 1525 1526 1524 1526 1527 1522 1518 1518 1519 1521 1522 1523 1525 1524 1522 1520 1519 1519 1517 1513 1510 1506 1502 1503 1506 1504 1498 1496 1491 1481 1474 1469 1465 1465 1465 1464 1464 1464 1460 1455 1454 1456 1460 1460 1460 1460
1539 1540 1540 1539 1539 1540 1540 1540 1540 1540 1540 1539 1538 1537 1537 1536 1535 1534 1533 1530 1523 1517 1513 1511 1511 1511 1510 1511 1511 1513 1515 1514 1515 1515 1516 1518 1519 1520 1520 1519 1522 1523 1522 1520 1519 1519 1517 1516 1516 1518 1519 1522 1522 1523 1525 1524 1517 1513 1515 1517 1513 1508 1509 1507 1502 1503 1504 1500 1500 1498 1483 1468 1465 1465 1460 1461 1464 1463 1461 1458 1454 1453 1454 1457 1458 1458 1460 1459
1538 1539 1539 1538 1538 1538 1539 1539 1539 1539 1539 1538 1538 1537 1536 1535 1534 1533 1531 1529 1523 1515 1509 1509 1510 1509 1509 1509 1509 1511 1512 1512 1513 1513 1514 1515 1517 1518 1518 1519 1520 1518 1516 1517 1520 1517 1513 1514 1516 1518 1520 1521 1523 1521 1521 1521 1514 1510 1511 1511 1508 1506 1507 1506 1504 1508 1506 1500 1501 1500 1487 1469 1462 1463 1459 1458 1461 1461 1458 1453 1450 1453 1454 1455 1456 1457 1459 1459
1537 1537 1537 1537 1537 1538 1539 1538 1538 1539 1538 1538 1537 1536 1536 1535 1533 1533 1531 1530 1522 1510 1507 1509 1509 1509 1509 1509 1509 1510 1511 1511 1510 1511 1512 1514 1515 1516 1516 1517 1517 1517 1516 1518 1520 1518 1514 1514 1515 1516 1518 1521 1525 1521 1515 1516 1517 1513 1508 1506 1506 1508 1509 1508 1510 1512 1507 1500 1500 1504 1503 1485 1464 1460 1459 1457 1459 1458 1453 1449 1449 1453 1454 1454 1456 1457 1459 1460
1535 1535 1536 1536 1536 1537 1538 1537 1538 1538 1537 1538 1536 1536 1536 1534 1534 1533 1530 1531 1521 1506 1506 1509 1509 1509 1509 1509 1510 1509 1510 1509 1510 1511 1511 1513 1514 1515 1514 1514 1516 1517 1517 1520 1520 1514 1511 1514 1516 1517 1518 1520 1522 1516 1509 1512 1517 1512 1508 1509 1508 1509 1510 1512 1514 1513 1507 1503 1502 1503 1507 1497 1473 1462 1459 1457 1459 1458 1450 1449 1451 1452 1454 1454 1456 1457 1459 1460
1532 1533 1534 1534 1534 1535 1536 1536 1537 1537 1538 1537 1536 1536 1535 1534 1535 1532 1534 1538 1521 1504 1506 1508 1508 1509 1508 1509 1510 1509 1510 1509 1510 1511 1511 1513 1513 1514 1514 1512 1513 1514 1515 1518 1515 1509 1508 1512 1514 1515 1518 1518 1513 1508 1506 1510 1513 1510 1511 1513 1511 1512 1513 1513 1513 1511 1509 1508 1504 1500 1504 1499 1476 1460 1461 1460 1458 1455 1449 1450 1453 1452 1454 1455 1455 1458 1459 1459
1531 1531 1532 1533 1533 1533 1534 1534 1535 1536 1537 1536 1536 1536 1534 1535 1534 1531 1541 1542 1516 1502 1507 1508 1507 1509 1508 1510 1510 1510 1510 1509 1510 1510 1511 1513 1513 1513 1513 1512 1513 1514 1514 1515 1510 1507 1508 1510 1510 1511 1513 1509 1504 1505 1507 1509 1509 1510 1513 1514 1513 1514 1514 1515 1513 1508 1511 1510 1501 1498 1500 1495 1472 1453 1460 1465 1459 1453 1448 1450 1453 1452 1453 1454 1454 1458 1460 1459
1529 1529 1530 1531 1531 1532 1532 1533 1534 1534 1535 1536 1535 1535 1535 1534 1533 1537 1546 1536 1512 1505 1508 1506 1508 1509 1508 1510 1510 1510 1511 1510 1511 1512 1512 1513 1513 1513 1513 1512 1514 1513 1514 1515 1510 1507 1508 1510 1511 1509 1506 1502 1502 1508 1509 1509 1510 1511 1513 1511 1511 1513 1512 1515 1512 1509 1514 1504 1491 1489 1490 1493 1479 1455 1453 1459 1456 1453 1450 1450 1452 1450 1450 1452 1455 1460 1459 1457
1526 1527 1528 1528 1529 1530 1531 1532 1532 1533 1534 1535 1534 1535 1535 1533 1535 1542 1540 1522 1510 1509 1506 1506 1510 1509 1509 1510 1509 1510 1511 1511 1511 1512 1512 1512 1513 1513 1514 1512 1513 1514 1514 1513 1509 1506 1509 1511 1508 1504 1502 1501 1503 1507 1510 1512 1512 1512 1512 1510 1510 1509 1507 1512 1512 1513 1515 1498 1484 1485 1485 1490 1482 1459 1451 1451 1450 1453 1453 1452 1450 1448 1450 1453 1457 1458 1455 1455
1524 1525 1526 1526 1527 1528 1529 1530 1531 1532 1533 1533 1535 1534 1535 1538 1536 1533 1525 1515 1512 1509 1504 1508 1510 1508 1510 1511 1509 1510 1511 1510 1511 1511 1511 1512 1512 1511 1511 1509 1509 1511 1509 1506 1505 1504 1504 1504 1502 1501 1501 1502 1502 1505 1509 1513 1513 1512 1512 1513 1515 1512 1510 1511 1508 1509 1505 1490 1487 1490 1489 1488 1471 1454 1453 1450 1447 1451 1453 1453 1452 1451 1453 1453 1455 1455 1453 1455
1522 1522 1523 1524 1525 1526 1527 1528 1529 1531 1531 1532 1534 1533 1536 1543 1533 1519 1516 1515 1511 1507 1505 1508 1510 1510 1511 1509 1508 1510 1510 1509 1509 1511 1511 1513 1513 1509 1507 1507 1508 1509 1506 1506 1507 1503 1498 1497 1500 1501 1499 1498 1499 1500 1502 1504 1508 1510 1507 1509 1513 1513 1516 1513 1504 1504 1497 1486 1492 1496 1493 1487 1466 1451 1451 1448 1448 1452 1452 1455 1455 1454 1456 1456 1456 1458 1458 1459
1519 1520 1520 1521 1522 1523 1524 1526 1527 1529 1530 1532 1533 1534 1539 1538 1523 1513 1515 1511 1507 1507 1507 1508 1510 1511 1511 1508 1507 1508 1508 1507 1507 1510 1511 1512 1513 1509 1504 1505 1508 1508 1507 1509 1507 1504 1502 1497 1495 1496 1494 1494 1496 1494 1494 1496 1502 1504 1500 1503 1505 1503 1507 1505 1497 1498 1492 1485 1495 1502 1494 1480 1464 1455 1452 1449 1451 1454 1454 1456 1456 1458 1460 1461 1462 1462 1462 1461
1516 1516 1517 1517 1519 1520 1521 1523 1525 1526 1529 1530 1532 1535 1534 1524 1514 1512 1512 1508 1506 1506 1507 1508 1509 1510 1509 1508 1508 1507 1506 1506 1507 1510 1510 1509 1508 1505 1501 1501 1504 1506 1509 1510 1504 1503 1503 1493 1490 1495 1494 1494 1495 1494 1495 1496 1500 1503 1503 1504 1504 1496 1496 1498 1494 1493 1494 1493 1495 1495 1485 1467 1455 1451 1450 1451 1454 1454 1457 1458 1459 1463 1464 1464 1464 1464 1463 1462
1512 1512 1513 1513 1515 1517 1519 1520 1522 1525 1526 1528 1531 1529 1520 1511 1509 1509 1506 1504 1505 1505 1506 1509 1507 1508 1508 1505 1507 1508 1506 1507 1509 1509 1508 1508 1506 1504 1501 1499 1500 1501 1502 1503 1499 1498 1498 1491 1491 1497 1496 1496 1496 1494 1496 1496 1496 1503 1505 1501 1498 1496 1494 1497 1497 1494 1500 1503 1488 1478 1473 1461 1454 1449 1446 1451 1454 1454 1459 1461 1464 1468 1468 1466 1467 1467 1466 1465
1508 1508 1507 1508 1511 1514 1515 1516 1519 1522 1523 1526 1527 1518 1507 1504 1504 1504 1503 1504 1504 1504 1506 1508 1504 1504 1505 1503 1505 1508 1507 1508 1509 1507 1506 1506 1503 1499 1498 1498 1498 1497 1496 1496 1495 1495 1496 1492 1490 1494 1494 1496 1498 1496 1496 1495 1495 1499 1501 1495 1494 1499 1499 1500 1504 1501 1504 1504 1485 1471 1467 1461 1460 1454 1445 1448 1453 1457 1463 1467 1469 1471 1470 1470 1471 1471 1470 1469
1504 1504 1503 1503 1506 1509 1511 1514 1516 1519 1521 1522 1518 1510 1504 1503 1500 1500 1502 1503 1503 1504 1506 1508 1504 1501 1503 1503 1503 1506 1507 1506 1507 1507 1505 1503 1497 1494 1495 1496 1498 1498 1497 1497 1497 1497 1499 1496 1491 1492 1495 1496 1497 1497 1496 1495 1496 1496 1496 1495 1495 1500 1500 1499 1506 1508 1506 1502 1489 1476 1470 1465 1461 1455 1447 1449 1457 1464 1469 1471 1472 1473 1473 1474 1474 1473 1472 1470
1501 1501 1500 1500 1502 1504 1506 1510 1513 1516 1518 1515 1511 1506 1503 1501 1499 1500 1501 1501 1503 1504 1506 1506 1504 1503 1504 1504 1503 1504 1506 1505 1505 1506 1505 1502 1497 1494 1495 1496 1497 1499 1498 1498 1499 1498 1500 1501 1496 1493 1496 1496 1495 1495 1494 1493 1496 1497 1498 1498 1496 1499 1500 1499 1504 1508 1504 1499 1491 1482 1476 1469 1461 1454 1451 1456 1464 1471 1473 1474 1475 1476 1476 1475 1474 1473 1473 1471
1499 1499 1498 1497 1499 1500 1503 1508 1511 1512 1510 1505 1503 1502 1500 1500 1500 1500 1501 1501 1502 1503 1504 1504 1504 1504 1503 1502 1503 1504 1506 1506 1506 1507 1505 1502 1498 1495 1496 1496 1497 1499 1499 1499 1501 1500 1502 1505 1502 1497 1497 1497 1493 1490 1488 1488 1492 1496 1499 1501 1500 1501 1505 1504 1503 1502 1501 1498 1493 1488 1481 1471 1462 1457 1456 1463 1471 1474 1473 1474 1476 1475 1475 1475 1474 1473 1471 1471
1496 1497 1497 1496 1497 1498 1502 1506 1507 1506 1504 1501 1499 1499 1499 1500 1499 1499 1500 1501 1501 1502 1503 1503 1504 1504 1504 1504 1504 1504 1506 1507 1505 1506 1505 1503 1500 1499 1498 1498 1498 1499 1500 1500 1501 1502 1502 1504 1503 1498 1495 1492 1485 1481 1482 1483 1486 1489 1492 1494 1495 1497 1501 1503 1497 1493 1494 1493 1488 1485 1479 1468 1461 1460 1463 1469 1473 1474 1474 1475 1475 1475 1475 1474 1473 1472 1471 1470
1493 1495 1495 1495 1496 1497 1500 1503 1502 1502 1501 1499 1497 1498 1499 1498 1498 1498 1499 1500 1501 1501 1502 1503 1503 1503 1504 1503 1503 1503 1505 1505 1502 1503 1502 1500 1499 1499 1498 1498 1499 1499 1499 1499 1498 1497 1498 1499 1498 1493 1486 1482 1478 1477 1480 1481 1482 1484 1485 1485 1486 1488 1490 1494 1490 1485 1485 1483 1479 1479 1477 1468 1464 1464 1467 1471 1472 1473 1475 1475 1474 1475 1474 1473 1472 1472 1471 1470
1492 1493 1493 1494 1496 1497 1500 1501 1500 1500 1498 1495 1495 1497 1498 1497 1497 1497 1498 1499 1500 1500 1501 1502 1501 1502 1501 1500 1501 1502 1503 1503 1500 1498 1498 1497 1496 1498 1498 1498 1499 1499 1499 1499 1497 1496 1497 1498 1496 1491 1484 1479 1476 1476 1480 1483 1482 1483 1483 1482 1483 1484 1483 1485 1485 1485 1486 1481 1477 1478 1475 1469 1470 1469 1467 1469 1470 1472 1473 1473 1473 1473 1473 1472 1471 1470 1470 1470
1492 1492 1493 1494 1495 1496 1497 1497 1496 1497 1496 1495 1496 1496 1496 1496 1495 1495 1497 1498 1499 1499 1501 1501 1499 1500 1500 1500 1501 1501 1501 1503 1499 1494 1496 1497 1497 1499 1499 1498 1499 1500 1500 1501 1500 1499 1499 1497 1497 1498 1495 1488 1482 1478 1479 1482 1483 1483 1484 1484 1485 1484 1485 1486 1485 1487 1488 1480 1476 1478 1471 1462 1464 1465 1463 1466 1468 1469 1471 1471 1471 1472 1471 1472 1471 1470 1470 1469
1491 1492 1493 1493 1494 1494 1494 1492 1492 1494 1494 1495 1496 1495 1495 1495 1493 1493 1496 1497 1497 1498 1499 1499 1498 1499 1500 1501 1502 1501 1500 1502 1501 1498 1498 1498 1498 1499 1499 1499 1499 1500 1501 1502 1501 1501 1501 1497 1495 1497 1497 1493 1487 1482 1480 1483 1486 1486 1486 1487 1486 1486 1488 1488 1486 1487 1484 1475 1473 1477 1470 1459 1458 1459 1459 1461 1464 1466 1469 1470 1470 1470 1471 1471 1470 1469 1468 1468
1491 1491 1491 1492 1493 1492 1492 1492 1492 1493 1493 1494 1495 1493 1493 1493 1491 1492 1494 1495 1495 1496 1497 1497 1497 1498 1500 1500 1501 1500 1498 1499 1501 1500 1499 1498 1498 1499 1499 1500 1500 1500 1501 1501 1500 1501 1502 1500 1496 1494 1493 1490 1487 1484 1484 1488 1492 1492 1490 1488 1487 1486 1487 1489 1490 1488 1484 1479 1477 1474 1469 1464 1462 1460 1457 1458 1463 1466 1467 1469 1469 1469 1469 1469 1468 1467 1466 1465
1490 1489 1489 1491 1491 1491 1491 1491 1492 1492 1492 1493 1493 1491 1490 1490 1490 1491 1492 1493 1493 1494 1494 1495 1495 1497 1497 1497 1498 1498 1496 1496 1499 1499 1498 1498 1498 1498 1499 1499 1500 1501 1500 1500 1500 1501 1502 1500 1495 1492 1492 1489 1486 1485 1486 1490 1492 1492 1491 1490 1488 1486 1486 1488 1488 1485 1483 1483 1478 1470 1466 1466 1464 1460 1457 1458 1463 1467 1468 1468 1468 1468 1467 1467 1466 1465 1464 1463
1489 1488 1488 1489 1489 1488 1489 1490 1490 1491 1491 1492 1492 1490 1489 1489 1489 1490 1491 1492 1492 1493 1494 1494 1494 1493 1494 1495 1497 1498 1496 1496 1497 1497 1498 1499 1499 1500 1499 1499 1500 1501 1500 1500 1500 1500 1501 1498 1492 1490 1491 1489 1487 1487 1487 1489 1490 1489 1488 1487 1486 1484 1482 1482 1481 1479 1480 1480 1475 1468 1466 1464 1461 1458 1458 1460 1464 1467 1468 1468 1468 1468 1467 1466 1466 1465 1464 1462
1488 1488 1487 1488 1488 1488 1488 1489 1490 1490 1491 1492 1492 1490 1489 1489 1489 1490 1491 1492 1492 1492 1493 1494 1493 1494 1495 1496 1497 1498 1497 1497 1497 1498 1498 1500 1501 1501 1500 1499 1500 1500 1500 1501 1500 1500 1502 1498 1494 1496 1497 1493 1491 1490 1488 1489 1490 1488 1486 1486 1484 1481 1477 1476 1475 1473 1473 1472 1468 1467 1466 1461 1458 1458 1460 1463 1467 1467 1467 1468 1467 1467 1467 1465 1465 1464 1462 1461
1487 1488 1487 1488 1488 1489 1489 1489 1490 1490 1490 1491 1491 1488 1488 1489 1489 1489 1491 1492 1493 1492 1491 1493 1494 1495 1496 1496 1496 1497 1496 1496 1497 1498 1498 1500 1500 1501 1502 1501 1500 1501 1502 1502 1501 1501 1503 1501 1498 1500 1501 1497 1493 1490 1489 1489 1488 1487 1485 1483 1481 1478 1474 1474 1473 1469 1469 1467 1463 1463 1461 1457 1457 1461 1463 1465 1466 1466 1467 1467 1466 1465 1465 1464 1463 1462 1460 1459
1486 1487 1487 1488 1488 1488 1490 1490 1491 1491 1491 1490 1489 1488 1487 1488 1488 1489 1491 1492 1492 1491 1491 1493 1495 1496 1496 1497 1496 1496 1496 1497 1498 1498 1499 1500 1500 1501 1503 1502 1502 1503 1502 1502 1502 1501 1502 1503 1500 1500 1503 1498 1490 1488 1489 1488 1488 1488 1486 1480 1476 1474 1471 1469 1467 1466 1465 1462 1459 1459 1456 1454 1458 1463 1464 1465 1465 1466 1465 1465 1464 1464 1463 1462 1461 1460 1458 1457
1486 1486 1486 1488 1488 1488 1489 1490 1491 1491 1490 1488 1488 1488 1488 1488 1488 1490 1492 1493 1493 1493 1493 1494 1495 1495 1496 1496 1496 1496 1497 1497 1498 1499 1500 1501 1500 1501 1502 1501 1502 1503 1502 1501 1501 1499 1500 1502 1501 1502 1503 1496 1489 1489 1491 1493 1495 1488 1477 1471 1468 1466 1465 1462 1461 1461 1459 1457 1457 1457 1454 1456 1461 1463 1464 1464 1465 1465 1464 1463 1463 1462 1461 1460 1459 1457 1456 1454